Location: Unspecified
(0.0000°N, 0.0000°E)
Time: 12:09:51
(UTC+00:00)

A-11 Canister half - All Passes

Search period start: 30 July 2015 00:00
Search period end: 09 August 2015 00:00
Orbit: 1526 x 1683 km, 47.3° (Epoch: 29 July)

Date Brightness Start Highest point End Pass type
(mag) Time Alt. Az. Time Alt. Az. Time Alt. Az.
30 Jul - 01:20:47 10° S 01:26:32 18° SE 01:33:01 10° E visible
30 Jul - 03:22:06 10° SW 03:32:08 88° SE 03:42:21 10° NE visible
30 Jul - 05:30:50 10° W 05:37:47 19° NW 05:44:10 10° N visible
30 Jul - 14:10:41 10° NNW 14:19:11 38° NE 14:27:42 10° ESE daylight
30 Jul - 16:15:20 10° WNW 16:24:08 44° SW 16:32:46 10° SSE daylight
31 Jul - 00:59:40 10° S 01:04:53 16° SE 01:10:51 10° E visible
31 Jul - 03:00:33 10° SW 03:10:34 83° SE 03:20:45 10° NE visible
31 Jul - 05:08:49 10° W 05:16:07 21° NW 05:22:54 10° N visible
31 Jul - 13:49:15 10° NNW 13:57:37 36° NE 14:05:59 10° ESE daylight
31 Jul - 15:53:37 10° WNW 16:02:35 47° SW 16:11:20 10° SSE daylight
01 Aug - 00:38:37 10° SSE 00:43:13 15° SE 00:48:37 10° ESE visible
01 Aug - 02:39:01 10° SW 02:48:58 78° SE 02:59:08 10° NE visible
01 Aug - 04:46:51 10° W 04:54:28 23° NW 05:01:38 10° N visible
01 Aug - 13:27:51 10° NNW 13:36:01 33° NE 13:44:15 10° ESE daylight
01 Aug - 15:31:57 10° WNW 15:41:02 51° SW 15:49:54 10° SSE daylight
02 Aug - 00:17:42 10° SSE 00:21:32 13° SE 00:26:16 10° ESE night (unlit)
02 Aug - 02:17:29 10° SSW 02:27:23 73° SE 02:37:31 10° NE visible
02 Aug - 04:24:56 10° W 04:32:49 24° NW 04:40:19 10° N visible
02 Aug - 13:06:27 10° N 13:14:26 31° NE 13:22:30 10° ESE daylight
02 Aug - 15:10:17 10° NW 15:19:28 54° SW 15:28:28 10° SSE daylight
02 Aug - 23:56:56 10° SSE 23:59:52 12° SE 00:03:43 10° ESE night (unlit)
03 Aug - 01:55:59 10° SSW 02:05:49 69° SE 02:15:53 10° NE visible
03 Aug - 04:03:02 10° W 04:11:10 26° NW 04:18:59 10° N visible
03 Aug - 12:45:05 10° N 12:52:50 29° NE 13:00:43 10° ESE daylight
03 Aug - 14:48:38 10° NW 14:57:56 58° SW 15:07:00 10° SSE daylight
03 Aug - 23:36:34 10° SSE 23:38:11 11° SE 23:40:45 10° ESE night (unlit)
04 Aug - 01:34:29 10° SSW 01:44:13 64° SE 01:54:14 10° NE visible
04 Aug - 03:41:11 10° WSW 03:49:32 28° NW 03:57:37 10° N visible
04 Aug - 12:23:43 10° N 12:31:14 27° NE 12:38:55 10° ESE daylight
04 Aug - 14:27:00 10° NW 14:36:23 63° SW 14:45:32 10° SSE daylight
05 Aug - 01:13:00 10° SSW 01:22:38 60° SE 01:32:34 10° NE visible
05 Aug - 03:19:21 10° WSW 03:27:54 30° NW 03:36:15 10° N visible
05 Aug - 12:02:23 10° N 12:09:37 25° NE 12:17:06 10° E daylight
05 Aug - 14:05:22 10° NW 14:14:50 67° SW 14:24:03 10° SSE daylight
05 Aug - 16:18:14 10° WSW 16:20:38 11° SW 16:22:09 10° SSW daylight
06 Aug - 00:51:32 10° SSW 01:01:03 56° SE 01:10:53 10° NE visible
06 Aug - 02:57:33 10° WSW 03:06:16 33° NW 03:14:51 10° NNE visible
06 Aug - 11:41:03 10° N 11:48:00 23° NE 11:55:14 10° E daylight
06 Aug - 13:43:45 10° NW 13:53:16 72° SW 14:02:34 10° SSE daylight
06 Aug - 15:55:23 10° WSW 15:58:59 12° SW 16:01:45 10° SSW daylight
07 Aug - 00:30:05 10° SSW 00:39:28 52° SE 00:49:12 10° NE visible
07 Aug - 02:35:47 10° WSW 02:44:39 35° NW 02:53:26 10° NNE visible
07 Aug - 11:19:45 10° N 11:26:23 21° NE 11:33:21 10° E daylight
07 Aug - 13:22:08 10° NW 13:31:43 77° SW 13:41:05 10° SE daylight
07 Aug - 15:32:54 10° WSW 15:37:20 13° SW 15:40:59 10° SSW daylight
08 Aug - 00:08:37 10° SSW 00:17:53 49° SE 00:27:29 10° ENE visible
08 Aug - 02:14:02 10° WSW 02:23:02 38° NW 02:32:01 10° NNE visible
08 Aug - 10:58:29 10° N 11:04:45 20° NE 11:11:25 10° E daylight
08 Aug - 13:00:32 10° NW 13:10:11 82° SW 13:19:33 10° SE daylight
08 Aug - 15:10:36 10° WSW 15:15:41 15° SW 15:20:03 10° SSW daylight
